sat.trackr.live / text

‹ back to catalog

2026-052G

NORAD 68204 · 2026-052G

PAYLOAD ACTIVE UNKNOWN

§ Identity

Operator
Country
PRC
Launch date
2026-03-16
Launch site
JSC
Launch vehicle
Mass (kg)
RCS (m²)

External: N2YO · Heavens-Above · Gunter

§ Orbital elements

Epoch: 2026-09-20T00:31:44.281056Z

Period
95.22 min
Inclination
97.5250°
Eccentricity
0.0009626
Mean motion
15.12339822 rev/d
Perigee alt
522.4 km
Apogee alt
535.7 km
Semi-major
6,907.2 km
B*
1.8289e-4
RAAN
336.5621°
Arg perigee
351.2338°
Mean anomaly
8.8723°
Rev number
2,838

§ Raw data

2026-052G1 68204U 26052G   26263.02204029  .00003107  00000+0  18289-3 0  99942 68204  97.5250 336.5621 0009626 351.2338   8.8723 15.12339822 28389

JSON: /api/v1/satellites/68204 · /tle

For live sub-satellite position, see the globe view (requires WebGL).

§ Visibility from observer

Set your observer location to see the next 7 days of passes ≥ 10°. The values pass through the URL so the page stays shareable.

No JS? Fill the form by hand. The geolocation button needs JavaScript.